Regional Weather Roundup
Issued by NWS

Home | Current Version | Previous Version | Graphics & Text | Print | Product List | Glossary On
Versions: 1 2 3 4 5 6 7 8 9 10 11 12 13 14 15 16 17 18 19 20 21 22 23 24 25 26 27 28 29 30 31 32 33 34 35 36 37 38 39 40 41 42 43 44 45 46 47 48 49 50
000
ASUS43 KMKX 011500
RWRWI

WISCONSIN REGIONAL WEATHER ROUNDUP
NATIONAL WEATHER SERVICE MILWAUKEE/SULLIVAN WI
1000 AM CDT TUE SEP 01 2015

NOTE: "FAIR" INDICATES FEW OR NO CLOUDS BELOW 12,000 FEET WITH NO
SIGNIFICANT WEATHER AND/OR OBSTRUCTIONS TO VISIBILITY.

WIZ001-002-006>008-014>016-023>028-011600-
NORTHWEST WISCONSIN

CITY           SKY/WX    TMP DP  RH WIND       PRES   REMARKS
SUPERIOR ARPT  CLOUDY    74  70  89 SW5       29.90S
ASHLAND        PTSUNNY   75  73  93 SW8       29.91F
HAYWARD        PTSUNNY   75  68  78 SW10      29.94F
SIREN          CLOUDY    73  69  85 SW6       29.93S
CUMBERLAND     MOSUNNY   70  70 100 S6        29.95S
RICE LAKE      MOSUNNY   75  70  85 S5        29.96S
CHETEK         PTSUNNY  N/A N/A N/A CALM      29.95S
LADYSMITH      PTSUNNY   72  71  96 S6        29.98F FOG
EAU CLAIRE     NOT AVBL
MENOMONIE      SUNNY     73  73  98 S6        29.95S FOG
NEW RICHMOND   PTSUNNY   77  69  77 SW7       29.94S
OSCEOLA        PTSUNNY   75  74  94 S7        29.94F
$$

WIZ003>005-009-010-017-018-011600-
NORTH CENTRAL WISCONSIN

CITY           SKY/WX    TMP DP  RH WIND       PRES   REMARKS
MANITOWISH WTR PTSUNNY   74  70  87 SW10      29.98S
ARBOR VITAE    PTSUNNY   73  70  90 SW7       29.99R
WOODRUFF       PTSUNNY   73  70  90 SW7       29.99R
RHINELANDER    PTSUNNY   73  68  84 S6        30.00F HAZE
EAGLE RIVER    PTSUNNY   73  69  88 SW5       29.99S FOG
LAND O LAKES   PTSUNNY   74  68  82 S5        29.99F
PHILLIPS       CLOUDY    72  70  94 S8        29.97F
TOMAHAWK       CLOUDY    69  68  96 SW3       30.00S FOG
MEDFORD        CLOUDY    71  71  99 S6        30.00R FOG
MERRILL        CLOUDY    74  71  92 W3        30.00R FOG
$$

WIZ029-030-035-036-043>047-011600-
CENTRAL WISCONSIN

CITY           SKY/WX    TMP DP  RH WIND       PRES   REMARKS
WAUSAU         MOSUNNY   74  69  85 S3        29.98S HAZE
MOSINEE        NOT AVBL
MARSHFIELD     MOSUNNY   77  70  79 SW6       29.99S
STEVENS POINT  SUNNY     74  69  83 S6        30.00S
WAUPACA        SUNNY     77  74  88 SW3       30.00S
WAUTOMA        NOT AVBL
WISC RAPIDS    MOSUNNY   78  70  76 SW6       30.00S HX  80
CAMP DOUGLAS   NOT AVBL
$$

WIZ011>013-019>022-031-037>040-048>050-011600-
NORTHEAST WISCONSIN

CITY           SKY/WX    TMP DP  RH WIND       PRES   REMARKS
ANTIGO         PTSUNNY   73  70  91 SW3       30.01F FOG
SHAWANO        SUNNY     76  70  82 SW3       29.99S
OCONTO         CLOUDY    73  73 100 SW3       29.98S
STURGEON BAY   SUNNY     77  70  78 S7        30.01F
GREEN BAY      SUNNY     78  72  81 SW7       29.99S HAZE    HX  80
MANITOWOC      NOT AVBL
APPLETON       MOSUNNY   77  72  83 SW8       29.99S
CLINTONVILLE   PTSUNNY   75  70  83 SW6       29.99S
OSHKOSH        SUNNY     78  71  79 SW7       30.00R HX  80
$$

WIZ032>034-041-042-053>061-011600-
SOUTHWEST WISCONSIN

CITY           SKY/WX    TMP DP  RH WIND       PRES   REMARKS
LA CROSSE      SUNNY     77  71  82 S8        29.96F
SPARTA         PTSUNNY   77  69  75 S5        29.98S
VIROQUA          N/A     77  74  92 SE5       30.00F
BOSCOBEL       SUNNY     81  71  71 CALM      29.99S HX  85
PRAIRIE DU CHI MOSUNNY   77  70  78 S3        29.99S
PLATTEVILLE    SUNNY     77  74  90 S9        30.02S
$$

WIZ056-057-062-063-064-067-068-011600-
SOUTH CENTRAL WISCONSIN

CITY           SKY/WX    TMP DP  RH WIND       PRES   REMARKS
REEDSBURG      MOSUNNY   77  72  84 S7        29.99F
BARABOO/DELLS  SUNNY     78  69  75 S5        30.00F HX  80
LONE ROCK      NOT AVBL
MINERAL POINT  SUNNY     79  72  78 S6        30.03F HX  82
MADISON        SUNNY     79  70  74 S7        30.01F HX  82
MIDDLETON      SUNNY     81  70  70 SW8       30.02F HX  84
WATERTOWN      SUNNY     77  77 100 SW7       30.02F
MONROE         SUNNY     77  70  78 S6        30.04S
JANESVILLE     SUNNY     79  73  83 SW6       30.02F HX  82
$$

WIZ051-052-058>065-066-070>072-011600-
SOUTHEAST WISCONSIN

CITY           SKY/WX    TMP DP  RH WIND       PRES   REMARKS
MILWAUKEE      MOSUNNY   80  71  74 SW8       30.03S HX  84
WAUKESHA       SUNNY     75  70  83 SW3       30.04F
MILWAUKEE/TIMM SUNNY     79  68  69 S6        30.03S HX  81
RACINE         MOSUNNY   81  71  71 SW6       30.05S HX  85
BURLINGTON     SUNNY     74  72  93 SW6       30.04S
KENOSHA        SUNNY     81  73  76 SW6       30.04F HX  86
FOND DU LAC    SUNNY     78  72  81 SW7       30.01S HX  80
SHEBOYGAN      SUNNY     78  73  84 S6        30.01F HX  81
WEST BEND      SUNNY     79  70  73 CALM      30.02F HX  81
JUNEAU         SUNNY     75  71  87 S9        30.04S
$$

LSZ147-162-011600-
LAKE SUPERIOR

STATION/POSITION TIME  TEMP    WIND        PRES    WAVE
                       AIR SEA DIR/SP/G            HT/PER
                 (UTC) (F)     (DEG/KT/KT) (MB)    (FT/S)
W MID LAKE BUOY  1350   59 54  220/  8/  8 1012.0S   1
DEVILS ISLAND    1400   66     230/  6/  8 1012.1F
PORT WING        1440   74     220/  5/  8 1012.5S
SAXON HARBOR     1400   76     210/  1/  6 1012.2S
$$

LMZ867-665-643>646-011600-
LAKE MICHIGAN

STATION/POSITION TIME  TEMP    WIND        PRES    WAVE
                       AIR SEA DIR/SP/G            HT/PER
                 (UTC) (F)     (DEG/KT/KT) (MB)    (FT/S)
CHAMBERS ISLAND  1400   75     180/  2/  9 1015.2F
S GREEN BAY BUOY 1400   68 64  200/  6/  6 1016.7F
N MID LAKE BUOY  1350   65 65  190/ 12/ 14 1015.6F   2/ 4
NORTHPORT PIER   1400   70     180/  5/  7 1015.6F
SISTER BAY       1404   76     140/  6/  8   N/A
ALGOMA LAKESHORE 1359             CALM       N/A
KEWAUNEE LAKESHO 1400   51     150/  5/  7 1015.0F
SHEBOYGAN LAKESH 1400   67     170/  8/  9 1016.5F
PORT WASHINGTON  1400   59     150/  2/  4 1017.3F
ATWATER BUOY     1400   57 52  150/  6/  6 1018.1F
MILWAUKEE LAKESH 1410   62     170/  2/  2   N/A
S MID LAKE BUOY  1350   71 69  180/ 10/ 10 1017.2R   0
KENOSHA   LAKESH 1400   66     180/ 13/ 17 1016.9F
$$

TC  - TEMPERATURE IN CELSIUS
VSB - VISIBILITY IN STATUTE MILES
WCI - WIND CHILL INDEX
HX  - HEAT INDEX




USA.gov is the U.S. government's official web portal to all federal, state and local government web resources and services.